Torna al catalogo

BRO-16

AttivoScienzaSSO
NORAD 62654·PAYLOAD·🇫🇷 France

Lanciato Jan 14, 2025 da Vandenberg Space Force Base

Loading…

Prossimi Passaggi (prossime 24 ore)

TLE

AggiornatoSource: Space-Track

Epoca: Sep 13, 2026, 23:13 UTC

1 62654U 25009AX  26256.96775421  .00002809  00000-0  11719-3 0  9992
2 62654  97.4006 336.3644 0002182  38.0719 322.0673 15.24497304 92329

Traccia BRO-16 in tempo reale con AllMySat

Download on the App Store